FW2272 Weather Reports


time (UTC)temp
C
wind
direction
speed
KPH
gust
KPH
rain 1hr
cm
rain 24hr
cm
rain mn
cm
humidity
%
barometer
mb
20260510105241 18 186 0.0 0.0 0.00 0.00 0.00 92 1014.2
20260510104742 18 176 0.0 0.0 0.00 0.00 0.00 92 1014.2
20260510104241 18 182 0.0 0.0 0.00 0.00 0.00 92 1013.9
20260510103742 18 206 0.0 0.0 0.00 0.00 0.00 92 1014.2
20260510103241 18 166 0.0 0.0 0.00 0.00 0.00 92 1014.2
20260510102740 18 194 0.0 0.0 0.00 0.00 0.00 92 1014.2
20260510102241 18 154 0.0 0.0 0.00 0.00 0.00 91 1014.2
20260510101742 18 180 0.0 0.0 0.00 0.00 0.00 91 1014.2
20260510101241 18 157 0.0 0.0 0.00 0.00 0.00 91 1013.9
20260510100741 18 173 0.0 0.0 0.00 0.00 0.00 91 1014.2
20260510100240 18 162 0.0 0.0 0.00 0.00 0.00 91 1014.2
20260510095740 18 160 0.0 0.0 0.00 0.00 0.00 90 1014.2
20260510095241 18 184 0.0 0.0 0.00 0.00 0.00 90 1014.2
20260510094739 18 185 0.0 0.0 0.00 0.00 0.00 90 1014.2
20260510094238 18 161 0.0 0.0 0.00 0.00 0.00 89 1014.2
20260510093738 18 188 0.0 0.0 0.00 0.00 0.00 89 1014.2
20260510093238 18 190 0.0 0.0 0.00 0.00 0.00 89 1014.2
20260510092740 18 159 0.0 0.0 0.00 0.00 0.00 89 1014.2
20260510092236 18 177 0.0 0.0 0.00 0.00 0.00 88 1014.2
20260510091739 19 151 0.0 0.0 0.00 0.00 0.00 88 1013.9
20260510091237 19 190 0.0 0.0 0.00 0.00 0.00 88 1013.9
20260510090753 19 168 0.0 0.0 0.00 0.00 0.00 88 1013.9
20260510090538 19 177 0.0 0.0 0.00 0.00 0.00 87 1013.9
20260510085738 19 165 0.0 0.0 0.00 0.00 0.00 87 1013.9
20260510085236 20 182 0.0 0.0 0.00 0.00 0.00 87 1013.9
20260510084736 20 169 0.0 0.0 0.00 0.00 0.00 87 1013.9
20260510084236 20 167 0.0 0.0 0.00 0.00 0.00 87 1013.5
20260510083736 20 165 0.0 0.0 0.00 0.00 0.00 87 1013.5
20260510083238 20 181 0.0 0.0 0.00 0.00 0.00 86 1013.9
20260510082736 20 176 0.0 0.0 0.00 0.00 0.00 86 1013.9
20260510082238 20 169 0.0 0.0 0.00 0.00 0.00 85 1013.9
20260510081735 20 173 0.0 0.0 0.00 0.00 0.00 85 1013.9
20260510081237 21 189 0.0 0.0 0.00 0.00 0.00 84 1013.9
20260510080735 21 189 0.0 0.0 0.00 0.00 0.00 84 1013.9
20260510080235 21 208 0.0 0.0 0.00 0.00 0.00 83 1013.9
20260510075733 21 195 0.0 0.0 0.00 0.00 0.00 83 1013.9
20260510075233 21 190 0.0 0.0 0.00 0.00 0.00 83 1013.9
20260510074735 21 180 0.0 0.0 0.00 0.00 0.00 83 1013.9
20260510074237 21 171 0.0 0.0 0.00 0.00 0.00 82 1013.9
20260510073736 22 184 0.0 0.0 0.00 0.00 0.00 82 1013.9
20260510073233 22 199 0.0 0.0 0.00 0.00 0.00 82 1013.9
20260510072734 22 183 0.0 0.0 0.00 0.00 0.00 82 1013.9
20260510072234 22 198 0.0 0.0 0.00 0.00 0.00 82 1013.9
20260510071734 22 212 0.0 0.0 0.00 0.00 0.00 82 1013.9
20260510071235 22 200 0.0 0.0 0.00 0.00 0.00 81 1013.9
20260510070733 22 177 3.2 0.0 0.00 0.00 0.00 81 1013.9
20260510070234 22 196 0.0 0.0 0.00 0.00 0.00 81 1013.9
20260510065737 22 183 1.6 0.0 0.00 0.00 0.00 81 1013.9
20260510065235 22 194 1.6 0.0 0.00 0.00 0.00 81 1013.9
20260510064732 22 212 3.2 0.0 0.00 0.00 0.00 81 1013.9
20260510064233 22 215 1.6 0.0 0.00 0.00 0.00 81 1013.9
20260510063732 22 208 0.0 0.0 0.00 0.00 0.00 81 1013.9
20260510063230 22 199 3.2 0.0 0.00 0.00 0.00 81 1013.9
20260510062731 22 143 4.8 0.0 0.00 0.00 0.00 81 1013.9
20260510062233 22 204 0.0 0.0 0.00 0.00 0.00 80 1013.9
20260510061732 23 211 0.0 0.0 0.00 0.00 0.00 80 1013.9
20260510061233 23 200 0.0 0.0 0.00 0.00 0.00 80 1014.2
20260510060732 23 216 0.0 0.0 0.00 0.00 0.00 80 1013.9
20260510060230 23 189 3.2 0.0 0.00 0.00 0.00 80 1013.9
20260510055729 23 198 3.2 0.0 0.00 0.00 0.00 79 1013.9
20260510055231 23 192 3.2 0.0 0.00 0.00 0.00 79 1013.9
20260510054729 23 210 3.2 0.0 0.00 0.00 0.00 79 1013.9
20260510054232 23 189 3.2 0.0 0.00 0.00 0.00 79 1013.9
20260510053737 23 202 3.2 0.0 0.00 0.00 0.00 79 1013.9
20260510053232 23 199 4.8 0.0 0.00 0.00 0.00 79 1013.5
20260510052729 23 143 6.4 0.0 0.00 0.00 0.00 79 1013.5
20260510052231 23 148 3.2 0.0 0.00 0.00 0.00 79 1013.5
20260510051730 23 211 3.2 0.0 0.00 0.00 0.00 79 1013.5
20260510051230 23 196 3.2 0.0 0.00 0.00 0.00 79 1013.5
20260510050729 23 171 4.8 0.0 0.00 0.00 0.00 80 1013.5
20260510050231 23 180 4.8 0.0 0.00 0.00 0.00 80 1013.5
20260510045729 23 171 3.2 0.0 0.00 0.00 0.00 80 1013.5
20260510045230 23 180 1.6 0.0 0.00 0.00 0.00 80 1013.5
20260510044728 23 164 3.2 0.0 0.00 0.00 0.00 80 1013.5
20260510044226 23 210 3.2 0.0 0.00 0.00 0.00 80 1013.5
20260510043728 22 202 3.2 0.0 0.00 0.00 0.00 81 1013.2
20260510043227 22 181 3.2 0.0 0.00 0.00 0.00 81 1013.2
20260510042727 22 180 3.2 0.0 0.00 0.00 0.00 81 1013.2
20260510042226 22 169 3.2 0.0 0.00 0.00 0.00 81 1013.2
20260510041728 22 186 3.2 0.0 0.00 0.00 0.00 81 1013.2
20260510041227 22 168 3.2 0.0 0.00 0.00 0.00 81 1013.2
20260510040730 22 159 4.8 0.0 0.00 0.00 0.00 81 1013.2
20260510040226 22 165 3.2 0.0 0.00 0.00 0.00 80 1013.2
20260510035729 22 153 3.2 0.0 0.00 0.00 0.00 80 1013.2
20260510035228 22 167 3.2 0.0 0.00 0.00 0.00 79 1013.2
20260510034727 22 176 3.2 0.0 0.00 0.00 0.00 79 1013.2
20260510034227 22 175 3.2 0.0 0.00 0.00 0.00 78 1013.2
20260510033726 23 180 3.2 0.0 0.00 0.00 0.00 78 1013.2
20260510033228 23 179 3.2 0.0 0.00 0.00 0.00 77 1012.9
20260510032728 23 181 3.2 0.0 0.00 0.00 0.00 77 1012.9
20260510032225 23 168 3.2 0.0 0.00 0.00 0.00 76 1012.9
20260510031728 23 157 3.2 0.0 0.00 0.00 0.00 75 1012.9
20260510031227 24 163 3.2 0.0 0.00 0.00 0.00 74 1012.9
20260510030726 24 168 3.2 0.0 0.00 0.00 0.00 73 1012.9
20260510030225 25 185 3.2 0.0 0.00 0.00 0.00 72 1012.9
20260510025725 25 181 3.2 0.0 0.00 0.00 0.00 71 1012.9
20260510025224 25 207 3.2 0.0 0.00 0.00 0.00 71 1012.5
20260510024726 25 189 3.2 0.0 0.00 0.00 0.00 70 1012.5
20260510024225 26 188 3.2 0.0 0.00 0.00 0.00 69 1012.5
20260510023726 26 188 3.2 0.0 0.00 0.00 0.00 68 1012.5
20260510023225 26 187 3.2 0.0 0.00 0.00 0.00 68 1012.5
20260510022724 26 171 3.2 0.0 0.00 0.00 0.00 67 1012.5
20260510022225 26 180 3.2 0.0 0.00 0.00 0.00 67 1012.2
20260510021725 26 168 4.8 0.0 0.00 0.00 0.00 66 1012.2
20260510021224 26 169 6.4 0.0 0.00 0.00 0.00 67 1012.2
20260510020724 26 188 4.8 0.0 0.00 0.00 0.00 67 1012.2
20260510020224 26 149 3.2 0.0 0.00 0.00 0.00 67 1011.9
20260510015725 26 202 3.2 0.0 0.00 0.00 0.00 67 1011.9
20260510015224 26 205 4.8 0.0 0.00 0.00 0.00 71 1011.9
20260510014726 26 197 3.2 0.0 0.00 0.00 0.00 71 1011.9
20260510014222 26 138 4.8 0.0 0.00 0.00 0.00 72 1011.5
20260510013722 27 168 3.2 0.0 0.00 0.00 0.00 71 1011.5
20260510013222 27 190 0.0 0.0 0.00 0.00 0.00 70 1011.5
20260510012725 27 189 0.0 0.0 0.00 0.00 0.00 71 1011.5
20260510012224 27 190 3.2 0.0 0.00 0.00 0.00 69 1011.5
20260510011726 27 175 3.2 0.0 0.00 0.00 0.00 69 1011.2
20260510011221 27 173 3.2 0.0 0.00 0.00 0.00 67 1011.2
20260510010722 28 169 3.2 0.0 0.00 0.00 0.00 65 1011.2
20260510010224 28 183 3.2 0.0 0.00 0.00 0.00 64 1011.2
20260510005722 28 166 4.8 0.0 0.00 0.00 0.00 63 1011.2
20260510005222 28 177 3.2 0.0 0.00 0.00 0.00 62 1011.2
20260510004722 29 183 3.2 0.0 0.00 0.00 0.00 61 1010.8
20260510004222 29 171 4.8 0.0 0.00 0.00 0.00 61 1010.8
20260510003720 29 167 3.2 0.0 0.00 0.00 0.00 60 1010.8
20260510003221 30 188 3.2 0.0 0.00 0.00 0.00 59 1010.8
20260510002721 30 160 8.0 0.0 0.00 0.00 0.00 57 1010.8
20260510002220 30 126 6.4 0.0 0.00 0.00 0.00 57 1010.5
20260510001722 30 171 6.4 0.0 0.00 0.00 0.00 57 1010.5
20260510001219 30 145 6.4 0.0 0.00 0.00 0.00 56 1010.5
20260510000720 30 162 4.8 0.0 0.00 0.00 0.00 58 1010.5
20260510000220 30 208 4.8 0.0 0.00 0.00 0.00 56 1010.5
20260509235719 30 229 4.8 0.0 0.00 0.00 0.00 56 1010.5
20260509235219 31 152 4.8 0.0 0.00 0.00 0.00 54 1010.5
20260509234722 31 177 4.8 0.0 0.00 0.00 0.00 55 1010.5
20260509234218 31 186 4.8 0.0 0.00 0.00 0.00 53 1010.5
20260509233718 31 132 4.8 0.0 0.00 0.00 0.00 54 1010.8
20260509233219 31 179 8.0 0.0 0.00 0.00 0.00 53 1010.8
20260509232719 31 161 4.8 0.0 0.00 0.00 0.00 53 1010.8
20260509232217 31 158 8.0 0.0 0.00 0.00 0.00 52 1010.5
20260509231717 31 218 4.8 0.0 0.00 0.00 0.00 54 1010.8
20260509231218 31 193 6.4 0.0 0.00 0.00 0.00 53 1010.8
20260509230718 31 143 9.7 0.0 0.00 0.00 0.00 54 1010.8
20260509230217 31 89 12.9 0.0 0.00 0.00 0.00 52 1010.5
20260509225720 31 95 4.8 0.0 0.00 0.00 0.00 53 1010.5
20260509225218 31 222 3.2 0.0 0.00 0.00 0.00 54 1010.5
20260509224719 31 150 4.8 0.0 0.00 0.00 0.00 53 1010.5
20260509224217 31 194 11.3 0.0 0.00 0.00 0.00 54 1010.5
20260509223718 31 98 11.3 0.0 0.00 0.00 0.00 53 1010.5
20260509223216 31 215 3.2 0.0 0.00 0.00 0.00 54 1010.5
20260509222717 31 279 4.8 0.0 0.00 0.00 0.00 53 1010.5
20260509222217 31 292 3.2 0.0 0.00 0.00 0.00 54 1010.5
20260509221717 31 232 4.8 0.0 0.00 0.00 0.00 54 1010.8
20260509221216 31 237 6.4 0.0 0.00 0.00 0.00 55 1010.8
20260509220715 31 302 8.0 0.0 0.00 0.00 0.00 54 1010.5
20260509220214 31 105 9.7 0.0 0.00 0.00 0.00 54 1010.8
20260509215715 31 48 6.4 0.0 0.00 0.00 0.00 56 1010.8
20260509215215 31 311 4.8 0.0 0.00 0.00 0.00 54 1010.8
20260509214714 31 198 9.7 0.0 0.00 0.00 0.00 54 1010.8
20260509214214 31 90 6.4 0.0 0.00 0.00 0.00 55 1010.8
20260509213714 31 173 9.7 0.0 0.00 0.00 0.00 55 1010.8
20260509213215 31 157 8.0 0.0 0.00 0.00 0.00 56 1010.8
20260509212713 31 260 6.4 0.0 0.00 0.00 0.00 54 1010.8
20260509212213 31 255 4.8 0.0 0.00 0.00 0.00 55 1010.8
20260509211713 31 267 9.7 0.0 0.00 0.00 0.00 55 1010.8
20260509211214 31 103 6.4 0.0 0.00 0.00 0.00 56 1010.8
20260509210713 31 85 6.4 0.0 0.00 0.00 0.00 55 1011.2
20260509210212 31 117 4.8 0.0 0.00 0.00 0.00 57 1011.2
20260509205720 31 340 6.4 0.0 0.00 0.00 0.00 57 1011.2
20260509205212 31 130 6.4 0.0 0.00 0.00 0.00 58 1011.2
20260509204713 32 234 6.4 0.0 0.00 0.00 0.00 56 1011.2
20260509204213 31 98 6.4 0.0 0.00 0.00 0.00 57 1011.5
20260509203715 31 95 8.0 0.0 0.00 0.00 0.00 57 1011.5
20260509203211 31 101 11.3 0.0 0.00 0.00 0.00 58 1011.5
20260509202712 31 134 8.0 0.0 0.00 0.00 0.00 57 1011.5
20260509202210 31 139 8.0 0.0 0.00 0.00 0.00 59 1011.5
20260509201715 31 338 6.4 0.0 0.00 0.00 0.00 57 1011.9
20260509201213 31 127 6.4 0.0 0.00 0.00 0.00 60 1011.9
20260509200713 32 113 6.4 0.0 0.00 0.00 0.00 59 1012.2
20260509200216 31 225 6.4 0.0 0.00 0.00 0.00 61 1012.2
20260509195710 31 240 3.2 0.0 0.00 0.00 0.00 57 1012.2
20260509195214 31 143 6.4 0.0 0.00 0.00 0.00 60 1012.2
20260509194710 31 261 8.0 0.0 0.00 0.00 0.00 58 1012.5
20260509194211 32 237 6.4 0.0 0.00 0.00 0.00 57 1012.5
20260509193710 31 109 4.8 0.0 0.00 0.00 0.00 58 1012.5
20260509193214 31 235 8.0 0.0 0.00 0.00 0.00 57 1012.5
20260509192712 31 59 9.7 0.0 0.00 0.00 0.00 59 1012.5
20260509192212 31 226 3.2 0.0 0.00 0.00 0.00 59 1012.5
20260509191712 31 263 6.4 0.0 0.00 0.00 0.00 57 1012.9
20260509191215 32 162 3.2 0.0 0.00 0.00 0.00 57 1012.9
20260509190710 32 268 4.8 0.0 0.00 0.00 0.00 57 1012.9
20260509190211 32 286 4.8 0.0 0.00 0.00 0.00 57 1012.9
20260509185712 32 172 4.8 0.0 0.00 0.00 0.00 59 1012.9
20260509185211 32 245 8.0 0.0 0.00 0.00 0.00 57 1012.9
20260509184712 32 139 8.0 0.0 0.00 0.00 0.00 59 1012.9
20260509184214 32 0 6.4 0.0 0.00 0.00 0.00 57 1013.2
20260509183713 32 244 4.8 0.0 0.00 0.00 0.00 60 1013.2
20260509183214 32 202 4.8 0.0 0.00 0.00 0.00 61 1013.2
20260509182715 32 275 4.8 0.0 0.00 0.00 0.00 57 1013.2
20260509182212 32 194 6.4 0.0 0.00 0.00 0.00 58 1013.2
20260509181711 31 117 6.4 0.0 0.00 0.00 0.00 59 1013.2
20260509181212 31 192 4.8 0.0 0.00 0.00 0.00 59 1013.5
20260509180712 31 170 4.8 0.0 0.00 0.00 0.00 61 1013.5
20260509180210 31 105 6.4 0.0 0.00 0.00 0.00 61 1013.5
20260509175712 31 283 6.4 0.0 0.00 0.00 0.00 62 1013.5
20260509175211 31 266 6.4 0.0 0.00 0.00 0.00 62 1013.5
20260509174714 31 92 4.8 0.0 0.00 0.00 0.00 65 1013.5
20260509174211 31 169 6.4 0.0 0.00 0.00 0.00 66 1013.5
20260509173713 30 260 4.8 0.0 0.00 0.00 0.00 67 1013.5
20260509173211 30 206 9.7 0.0 0.00 0.00 0.00 68 1013.5
20260509172715 29 128 6.4 0.0 0.00 0.00 0.00 68 1013.9
20260509172212 30 313 6.4 0.0 0.00 0.00 0.00 67 1013.9
20260509171714 29 96 4.8 0.0 0.00 0.00 0.00 68 1013.9
20260509171215 28 221 4.8 0.0 0.00 0.00 0.00 69 1013.9
20260509170713 28 205 4.8 0.0 0.00 0.00 0.00 72 1013.9
20260509170209 27 123 4.8 0.0 0.00 0.00 0.00 76 1013.9
20260509165713 26 163 3.2 0.0 0.00 0.00 0.00 77 1013.9
20260509165209 26 111 4.8 0.0 0.00 0.00 0.00 76 1013.9
20260509164713 27 316 4.8 0.0 0.00 0.00 0.00 78 1014.2
20260509164213 27 126 4.8 0.0 0.00 0.00 0.00 78 1014.2
20260509163714 27 187 4.8 0.0 0.00 0.00 0.00 78 1014.2
20260509163212 27 195 4.8 0.0 0.00 0.00 0.00 78 1013.9
20260509162713 26 132 6.4 0.0 0.00 0.00 0.00 80 1014.2
20260509162212 26 116 4.8 0.0 0.00 0.00 0.00 82 1013.9
20260509161711 26 263 6.4 0.0 0.00 0.00 0.00 82 1013.9
20260509161213 26 23 6.4 0.0 0.00 0.00 0.00 83 1013.9
20260509160713 26 96 6.4 0.0 0.00 0.00 0.00 84 1013.9
20260509160211 26 199 6.4 0.0 0.00 0.00 0.00 85 1013.9
20260509155713 26 158 6.4 0.0 0.00 0.00 0.00 86 1013.9
20260509155212 25 121 8.0 0.0 0.00 0.00 0.00 87 1013.9
20260509154711 25 151 9.7 0.0 0.00 0.00 0.00 89 1014.2
20260509154210 25 182 3.2 0.0 0.00 0.00 0.00 91 1014.6
20260509153719 24 118 4.8 0.0 0.00 0.00 0.00 91 1014.2
20260509153219 24 184 8.0 0.0 0.00 0.00 0.00 93 1014.2
20260509152722 23 242 4.8 0.0 0.00 0.00 0.00 93 1014.2
20260509152218 23 114 4.8 0.0 0.00 0.00 0.00 94 1014.6
20260509151719 23 115 6.4 0.0 0.00 0.00 0.00 95 1014.6
20260509151218 23 140 6.4 0.0 0.00 0.00 0.00 95 1014.6
20260509150720 23 150 6.4 0.0 0.00 0.00 0.00 96 1014.6
20260509150218 23 159 4.8 0.0 0.00 0.00 0.00 97 1014.6
20260509145718 23 225 4.8 0.0 0.00 0.00 0.00 97 1014.6
20260509145218 22 169 6.4 0.0 0.00 0.00 0.00 98 1014.6
20260509144719 22 92 0.0 0.0 0.00 0.00 0.00 98 1014.6
20260509144218 22 101 0.0 0.0 0.00 0.00 0.00 98 1014.6
20260509143718 22 182 0.0 0.0 0.00 0.00 0.00 98 1014.6
20260509143217 22 171 0.0 0.0 0.00 0.00 0.00 98 1014.6
20260509142719 22 74 1.6 0.0 0.00 0.00 0.00 98 1014.6
20260509142219 22 137 4.8 0.0 0.00 0.00 0.00 98 1014.2
20260509141718 22 214 0.0 0.0 0.00 0.00 0.00 98 1014.2
20260509141217 22 148 0.0 0.0 0.00 0.00 0.00 98 1014.2
20260509140718 22 170 0.0 0.0 0.00 0.00 0.00 98 1014.2
20260509140221 22 261 0.0 0.0 0.00 0.00 0.00 98 1013.9
20260509135716 22 255 0.0 0.0 0.00 0.00 0.00 98 1013.5
20260509135218 22 233 0.0 0.0 0.00 0.00 0.00 98 1013.5
20260509134718 22 237 6.4 0.0 0.00 0.00 0.00 98 1013.5
20260509134218 22 268 0.0 0.0 0.00 0.00 0.00 98 1013.5
20260509133717 22 239 1.6 0.0 0.00 0.00 0.00 98 1013.9
20260509133215 22 254 3.2 0.0 0.00 0.00 0.00 98 1013.9
20260509132716 22 220 4.8 0.0 0.00 0.00 0.00 98 1013.9
20260509132214 22 237 0.0 0.0 0.00 0.00 0.00 98 1013.9
20260509131716 22 252 0.0 0.0 0.00 0.00 0.00 98 1013.9
20260509131216 22 219 0.0 0.0 0.00 0.00 0.00 98 1013.9
20260509130714 22 197 0.0 0.0 0.00 0.00 0.00 98 1013.9
20260509130215 22 215 0.0 0.0 0.00 0.00 0.00 98 1013.9
20260509125715 22 248 0.0 0.0 0.00 0.00 0.00 98 1013.5
20260509125214 22 161 0.0 0.0 0.00 0.00 0.00 98 1013.9
20260509124713 22 204 0.0 0.0 0.00 0.00 0.00 98 1013.9
20260509124212 22 206 0.0 0.0 0.00 0.00 0.00 98 1013.9
20260509123712 22 260 0.0 0.0 0.00 0.00 0.00 98 1013.9
20260509123213 22 196 0.0 0.0 0.00 0.00 0.00 98 1013.9
20260509122715 22 214 0.0 0.0 0.00 0.00 0.00 98 1013.9
20260509122214 22 178 0.0 0.0 0.00 0.00 0.00 98 1013.9
20260509121811 22 205 4.8 0.0 0.00 0.00 0.00 98 1013.9
20260509120713 22 245 6.4 0.0 0.00 0.00 0.00 98 1013.9
20260509120211 22 289 6.4 0.0 0.00 0.00 0.00 98 1014.2
20260509115716 22 330 8.0 0.0 0.00 0.00 0.00 98 1013.9
20260509115213 22 277 6.4 0.0 0.00 0.00 0.00 98 1013.9
20260509114713 22 250 6.4 0.0 0.00 0.00 0.00 98 1013.9
20260509114212 22 268 6.4 0.0 0.00 0.00 0.00 98 1013.5
20260509113714 22 272 3.2 0.0 0.00 0.00 0.00 98 1013.5
20260509113211 22 224 0.0 0.0 0.00 0.00 0.00 98 1013.2
20260509112712 22 221 0.0 0.0 0.00 0.00 0.00 98 1013.2
20260509112214 22 221 0.0 0.0 0.00 0.00 0.00 98 1013.2
20260509111712 22 225 0.0 0.0 0.00 0.00 0.00 98 1013.2
20260509111213 22 229 0.0 0.0 0.00 0.00 0.00 98 1013.2
20260509110715 22 217 0.0 0.0 0.00 0.00 0.00 98 1013.2
20260509110212 22 226 0.0 0.0 0.00 0.00 0.00 98 1013.2
20260509105714 22 233 0.0 0.0 0.00 0.00 0.00 98 1013.2